Change the Weather History Date:

Wednesday, December 19, 2012

  Actual Average Record
Temperature  
Mean Temperature 37 °F -  
Max Temperature 42 °F 33 °F 54 °F (2011)
Min Temperature 32 °F 22 °F 0 °F (1983)
Degree Days  
Heating Degree Days 28    
Moisture  
Dew Point 33 °F    
Average Humidity 82    
Maximum Humidity 87    
Minimum Humidity 67    
Precipitation  
Precipitation 0.00 in - - ()
Sea Level Pressure  
Sea Level Pressure 29.96 in    
Wind  
Wind Speed 2 mph (NW)    
Max Wind Speed 8 mph    
Max Gust Speed -    
Visibility 4 miles    
Events      
Averages and records for this station are not official NWS values.
T = Trace of Precipitation, MM = Missing Value Source: NWS Daily Summary

Daily Weather History Graph

Daily Weather History Graph

Search for Another Location

Airport or City:

Trip Planner

Search our weather history database for the weather conditions in past years. The results will help you decide how hot, cold, wet, or windy it might be!

Date:

Astronomy

Dec. 19, 2012 Rise Set
Actual Time 7:58 AM EST 5:04 PM EST
Civil Twilight 7:26 AM EST 5:36 PM EST
Nautical Twilight 6:51 AM EST 6:11 PM EST
Astronomical Twilight 6:17 AM EST 6:45 PM EST
Moon 12:00 PM EST (12/19) No Moon Set
Length of Visible Light 10h 09m
Length of Day
9h 05m
Waxing Crescent, 45% of the Moon is Illuminated
Dec 19
Waxing Crescent
Dec 20
First Quarter
Dec 28
Full
Jan 4
Last Quarter
Jan 11
New

Hourly Weather History & Observations

Time (EST) Temp. Windchill Dew Point Humidity Pressure Visibility Wind Dir Wind Speed Gust Speed Precip Events Conditions
12:53 AM 39.0 °F - 35.1 °F 86% 29.74 in 4.0 mi Calm Calm - N/A   Overcast
1:19 AM 39.2 °F 37.0 °F 35.6 °F 87% 29.74 in 4.0 mi ESE 3.5 mph - N/A   Overcast
1:53 AM 39.0 °F 36.8 °F 35.1 °F 86% 29.76 in 4.0 mi South 3.5 mph - N/A   Overcast
2:05 AM 39.2 °F - 33.8 °F 81% 29.76 in 4.0 mi Calm Calm - N/A   Haze
2:16 AM 39.2 °F - 35.6 °F 87% 29.77 in 4.0 mi Calm Calm - N/A   Overcast
2:37 AM 39.2 °F - 35.6 °F 87% 29.78 in 4.0 mi Calm Calm - N/A   Overcast
2:48 AM 39.2 °F - 35.6 °F 87% 29.78 in 4.0 mi Calm Calm - N/A   Overcast
2:53 AM 39.0 °F - 35.1 °F 86% 29.80 in 4.0 mi Calm Calm - N/A   Overcast
3:53 AM 39.0 °F - 35.1 °F 86% 29.81 in 3.0 mi Calm Calm - N/A   Overcast
4:02 AM 39.2 °F - 35.6 °F 87% 29.81 in 2.5 mi Calm Calm - N/A   Overcast
4:53 AM 39.0 °F 36.8 °F 35.1 °F 86% 29.85 in 2.0 mi NNW 3.5 mph - N/A   Overcast
5:05 AM 39.2 °F - 35.6 °F 87% 29.84 in 1.8 mi Calm Calm - N/A   Overcast
5:13 AM 39.2 °F 37.0 °F 35.6 °F 87% 29.85 in 2.0 mi NNW 3.5 mph - N/A   Overcast
5:53 AM 39.0 °F - 35.1 °F 86% 29.86 in 2.0 mi Calm Calm - N/A   Overcast
6:53 AM 39.0 °F 34.8 °F 35.1 °F 86% 29.91 in 2.5 mi NW 5.8 mph - N/A   Overcast
7:04 AM 39.2 °F 35.9 °F 35.6 °F 87% 29.90 in 3.0 mi WNW 4.6 mph - N/A   Overcast
7:16 AM 37.4 °F 33.8 °F 33.8 °F 87% 29.90 in 3.0 mi NW 4.6 mph - N/A   Overcast
7:29 AM 37.4 °F 33.8 °F 33.8 °F 87% 29.91 in 3.0 mi NW 4.6 mph - N/A   Mostly Cloudy
7:53 AM 39.0 °F 36.8 °F 35.1 °F 86% 29.94 in 3.0 mi WNW 3.5 mph - N/A   Overcast
8:11 AM 39.2 °F 35.9 °F 35.6 °F 87% 29.94 in 2.5 mi West 4.6 mph - N/A   Overcast
8:34 AM 39.2 °F 34.2 °F 35.6 °F 87% 29.95 in 2.5 mi WNW 6.9 mph - N/A   Haze
8:51 AM 39.2 °F 34.2 °F 35.6 °F 87% 29.96 in 2.5 mi WNW 6.9 mph - N/A   Haze
8:53 AM 39.9 °F 35.1 °F 35.1 °F 83% 29.97 in 2.5 mi WNW 6.9 mph - N/A   Haze
9:38 AM 41.0 °F 37.1 °F 33.8 °F 76% 29.99 in 3.0 mi WNW 5.8 mph - N/A   Haze
9:53 AM 41.0 °F 37.1 °F 34.0 °F 76% 30.01 in 4.0 mi West 5.8 mph - N/A   Haze
10:53 AM 41.0 °F 36.4 °F 34.0 °F 76% 30.04 in 3.0 mi NNW 6.9 mph - N/A   Haze
11:53 AM 41.0 °F 36.4 °F 33.1 °F 73% 30.06 in 4.0 mi NNW 6.9 mph - N/A   Haze
12:35 PM 39.2 °F 33.6 °F 33.8 °F 81% 30.05 in 4.0 mi NW 8.1 mph - N/A   Haze
12:53 PM 41.0 °F 37.1 °F 33.1 °F 73% 30.05 in 4.0 mi NW 5.8 mph - N/A   Haze
1:53 PM 41.0 °F 36.4 °F 33.1 °F 73% 30.06 in 5.0 mi NW 6.9 mph - N/A   Haze
2:53 PM 41.0 °F 39.0 °F 32.0 °F 70% 30.07 in 6.0 mi NW 3.5 mph - N/A   Haze
3:53 PM 42.1 °F 40.2 °F 32.0 °F 67% 30.08 in 7.0 mi NNE 3.5 mph - N/A   Overcast
4:16 PM 41.0 °F - 32.0 °F 70% 30.08 in 7.0 mi Calm Calm - N/A   Scattered Clouds
4:53 PM 39.0 °F - 30.9 °F 73% 30.11 in 7.0 mi Calm Calm - N/A   Partly Cloudy
5:16 PM 37.4 °F 34.9 °F 30.2 °F 75% 30.11 in 6.0 mi SSE 3.5 mph - N/A   Haze
5:53 PM 37.9 °F 35.5 °F 30.9 °F 76% 30.12 in 7.0 mi SE 3.5 mph - N/A   Overcast
6:36 PM 37.4 °F - 30.2 °F 75% 30.11 in 7.0 mi Calm Calm - N/A   Scattered Clouds
6:53 PM 37.0 °F - 30.0 °F 76% 30.13 in 6.0 mi Calm Calm - N/A   Haze
7:53 PM 32.0 °F 28.7 °F 28.0 °F 85% 30.13 in 4.0 mi ENE 3.5 mph - N/A   Clear
8:53 PM 32.0 °F - 28.0 °F 85% 30.14 in 4.0 mi Calm Calm - N/A   Clear
9:40 PM 32.0 °F - 28.4 °F 87% 30.12 in 4.0 mi Calm Calm - N/A   Mostly Cloudy
9:53 PM 32.0 °F - 28.0 °F 85% 30.13 in 4.0 mi Calm Calm - N/A   Scattered Clouds
10:53 PM 32.0 °F 28.7 °F 27.0 °F 82% 30.13 in 4.0 mi ESE 3.5 mph - N/A   Haze
11:53 PM 36.0 °F 30.3 °F 30.9 °F 82% 30.10 in 4.0 mi East 6.9 mph - N/A   Haze